Regional Weather Roundup
Issued by NWS Cleveland, OH

Home | Current Version | Previous Version | Text Only | Print | Product List | Glossary On
Versions: 1 2 3 4 5 6 7 8 9 10 11 12 13 14 15 16 17 18 19 20 21 22 23 24 25 26 27 28 29 30 31 32 33 34 35 36 37 38 39 40 41 42 43 44 45 46 47 48 49 50
000
ASUS41 KCLE 020510
RWRCLE
OHIO REGIONAL WEATHER ROUNDUP
NATIONAL WEATHER SERVICE WILMINGTON, OH
100 AM EDT SUN AUG 02 2015

NOTE: "FAIR" INDICATES FEW OR NO CLOUDS BELOW 12,000 FEET WITH NO
SIGNIFICANT WEATHER AND/OR OBSTRUCTIONS TO VISIBILITY.

OHZ001>008-015>018-024>027-034-035-043-044-020600-
   NORTHWEST OHIO

CITY           SKY/WX    TMP DP  RH WIND       PRES   REMARKS
DEFIANCE       PTCLDY    73  59  61 SW6       29.92S
FINDLAY        CLOUDY    67  59  75 SW7       29.93S
TOLEDO EXPRESS CLOUDY    67  57  70 CALM      29.91S
TOLEDO EXEC    MOCLDY    69  57  65 SW5       29.92S
LIMA           MOCLDY    70  58  65 SW7       29.96S
$$

OHZ009>014-019>023-028>033-038-089-020600-
   NORTHEAST OHIO

CITY           SKY/WX    TMP DP  RH WIND       PRES   REMARKS
CLE-HOPKINS    CLEAR     67  54  63 SW7       29.94S
CLE-LAKEFRONT  CLEAR     73  56  54 SW10      29.91R
CUY CO. ARPT   NOT AVBL
LORAIN-ELYRIA  PTCLDY    63  54  72 SW7       29.94R
ASHTABULA      CLEAR     64  54  69 S5        29.92S
AKRON-CANTON   PTCLDY    68  55  63 W5        29.96R
WOOSTER        MOCLDY    59  56  89 CALM      29.97R
MANSFIELD      PTCLDY    66  55  67 SW5       29.97R
YOUNGSTOWN     PTCLDY    63  56  78 SW7       29.94R
$$

OHZ042-051>053-060>062-070>072-077>081-020600-
  SOUTHWEST OHIO

CITY           SKY/WX    TMP DP  RH WIND       PRES   REMARKS
CINC-COVINGTON PTCLDY    67  60  78 W6        30.00S
CINC-LUNKEN    PTCLDY    64  62  93 CALM      30.00R
HAMILTON       PTCLDY    63  61  93 CALM      30.00R
DAYTON         PTCLDY    66  58  75 SW6       29.99S
WRIGHT-PAT AFB PTCLDY    65  60  84 S2        29.98S
DAYTON GENERAL CLEAR     67  58  72 S3        29.99R
WILMINGTON     CLEAR     64  58  80 SW3       30.00R
$$

OHZ036-037-039>041-045>050-054>059-063>069-073>076-082>088-020600-
  CENTRAL AND SOUTHEAST OHIO

CITY           SKY/WX    TMP DP  RH WIND       PRES   REMARKS
COLUMBUS       MOCLDY    69  57  65 CALM      29.96S
OSU AIRPORT    PTCLDY    66  57  72 W5        29.97S
BOLTON FIELD   PTCLDY    64  59  84 W3        29.98S
RICKENBACK AFB PTCLDY    64  59  85 S3        29.97S
NEWARK         CLEAR     62  59  90 CALM      29.97R
MARION         MOCLDY    68  57  68 SW5       29.97R
LANCASTER      PTCLDY    60  57  89 E5        29.98S
ZANESVILLE     MOCLDY    63  58  83 CALM      29.98R
NEW PHILLY     CLEAR     60  58  92 CALM      29.97R
$$



USA.gov is the U.S. government's official web portal to all federal, state and local government web resources and services.